TimeCST,TemperatureF,Dew PointF,Humidity,Sea Level PressureIn,VisibilityMPH,Wind Direction,Wind SpeedMPH,Gust SpeedMPH,PrecipitationIn,Events,Conditions,WindDirDegrees,DateUTC
12:53 AM,28.9,25.0,85,30.32,10.0,North,3.5,-,N/A,,Clear,350,2013-11-19 06:53:00
1:53 AM,32.0,28.0,85,30.32,10.0,NNE,3.5,-,N/A,,Clear,30,2013-11-19 07:53:00
2:53 AM,30.9,28.0,89,30.32,10.0,ENE,5.8,-,N/A,,Clear,60,2013-11-19 08:53:00
3:53 AM,27.0,25.0,92,30.33,8.0,Calm,Calm,-,N/A,,Clear,0,2013-11-19 09:53:00
4:53 AM,28.0,26.1,92,30.34,7.0,Calm,Calm,-,N/A,,Clear,0,2013-11-19 10:53:00
5:53 AM,30.0,26.1,85,30.33,10.0,East,8.1,-,N/A,,Clear,80,2013-11-19 11:53:00
6:53 AM,28.9,25.0,85,30.34,10.0,East,4.6,-,N/A,,Clear,100,2013-11-19 12:53:00
7:53 AM,30.0,25.0,82,30.35,10.0,SE,4.6,-,N/A,,Clear,130,2013-11-19 13:53:00
8:53 AM,34.0,27.0,75,30.36,10.0,SE,8.1,-,N/A,,Clear,140,2013-11-19 14:53:00
9:53 AM,37.9,27.0,65,30.36,10.0,SSE,8.1,-,N/A,,Clear,150,2013-11-19 15:53:00
10:53 AM,39.9,28.0,63,30.34,10.0,SSE,9.2,-,N/A,,Clear,150,2013-11-19 16:53:00
11:53 AM,44.1,26.1,49,30.30,10.0,SE,6.9,-,N/A,,Clear,130,2013-11-19 17:53:00
12:53 PM,46.9,27.0,46,30.27,10.0,SE,8.1,-,N/A,,Clear,140,2013-11-19 18:53:00
1:53 PM,48.9,28.0,44,30.25,10.0,SSE,5.8,-,N/A,,Clear,160,2013-11-19 19:53:00
2:53 PM,48.9,28.0,44,30.23,10.0,SE,10.4,-,N/A,,Clear,130,2013-11-19 20:53:00
3:53 PM,46.9,28.0,48,30.22,10.0,SE,9.2,-,N/A,,Clear,140,2013-11-19 21:53:00
4:53 PM,44.1,27.0,51,30.22,10.0,SE,9.2,-,N/A,,Clear,140,2013-11-19 22:53:00
5:53 PM,41.0,26.1,55,30.22,10.0,SSE,9.2,-,N/A,,Clear,150,2013-11-19 23:53:00
6:53 PM,37.9,26.1,62,30.22,10.0,SE,8.1,-,N/A,,Clear,130,2013-11-20 00:53:00
7:53 PM,37.9,26.1,62,30.21,10.0,SE,8.1,-,N/A,,Clear,130,2013-11-20 01:53:00
8:53 PM,37.9,27.0,65,30.20,10.0,SE,11.5,-,N/A,,Clear,140,2013-11-20 02:53:00
9:53 PM,37.9,27.0,65,30.19,10.0,SSE,11.5,20.7,N/A,,Mostly Cloudy,150,2013-11-20 03:53:00
10:53 PM,37.0,28.0,70,30.20,10.0,SSE,11.5,-,N/A,,Clear,160,2013-11-20 04:53:00
11:53 PM,37.0,28.0,70,30.20,10.0,SSE,9.2,-,N/A,,Overcast,150,2013-11-20 05:53:00